Location: Niedergestelen
(46.3129°N, 7.7822°E)
Time: 14:26:40
(UTC+00:00)

ERS-2 - Pass Details

Date: 01 December 2020
Orbit: 492 x 498 km, 98.6° (Epoch: 27 January)

Event Time Altitude Azimuth Distance (km) Brightness Sun altitude
Exits shadow 16:35:53 10° 47° (NE) 1,702 4.2 -8.8°
Maximum altitude 16:38:36 20° 95° (E) 1,210 3.5 -9.2°
Drops below altitude 10° 16:41:21 10° 144° (SE) 1,699 4.7 -9.7°
Sets 16:43:50 0° 161° (SSE) 2,576 5.8 -10.1°
